F6273 Weather Reports


time (UTC)temp
C
wind
direction
speed
KPH
gust
KPH
rain 1hr
cm
rain 24hr
cm
rain mn
cm
humidity
%
barometer
mb
20260504081548 13 274 4.8 9.7 0.00 0.00 0.00 73 1014.6
20260504081029 13 254 1.6 8.0 0.00 0.00 0.00 75 1014.6
20260504080525 12 242 3.2 9.7 0.00 0.00 0.00 77 1014.6
20260504080104 12 252 1.6 11.3 0.00 0.00 0.00 78 1014.6
20260504050531 8 0 0.0 8.0 0.00 0.00 0.00 86 1013.4
20260504045525 8 246 0.0 4.8 0.00 0.00 0.00 86 1013.4
20260504045024 8 252 0.0 6.4 0.00 0.00 0.00 85 1013.4
20260504044542 8 0 0.0 6.4 0.00 0.00 0.00 85 1013.5
20260504044025 8 256 0.0 4.8 0.00 0.00 0.00 85 1013.5
20260504043524 8 0 0.0 0.0 0.00 0.00 0.00 85 1013.6
20260504043042 8 0 0.0 0.0 0.00 0.00 0.00 85 1013.6
20260504042525 8 0 0.0 0.0 0.00 0.00 0.00 85 1013.7
20260504042024 8 0 0.0 0.0 0.00 0.00 0.00 85 1013.7
20260504041545 8 0 0.0 4.8 0.00 0.00 0.00 84 1013.6
20260504041103 8 0 0.0 4.8 0.00 0.00 0.00 84 1013.6
20260504040525 9 0 0.0 4.8 0.00 0.00 0.00 84 1013.6
20260504040107 9 0 0.0 6.4 0.00 0.00 0.00 84 1013.5
20260504035528 9 0 0.0 6.4 0.00 0.00 0.00 84 1013.7
20260504035028 9 0 1.6 6.4 0.00 0.00 0.00 84 1013.5
20260504034542 9 0 1.6 4.8 0.00 0.00 0.00 84 1013.6
20260504034024 9 253 0.0 4.8 0.00 0.00 0.00 84 1013.6
20260504033525 10 0 0.0 6.4 0.00 0.00 0.00 83 1013.6
20260504033046 10 252 1.6 6.4 0.00 0.00 0.00 84 1013.7
20260504032528 10 254 0.0 6.4 0.00 0.00 0.00 83 1013.6
20260504032027 10 267 1.6 6.4 0.00 0.00 0.00 83 1013.7
20260504031551 10 0 0.0 0.0 0.00 0.00 0.00 83 1013.7
20260504031024 10 0 0.0 6.4 0.00 0.00 0.00 83 1013.6
20260504030528 10 0 0.0 6.4 0.00 0.00 0.00 83 1013.7
20260504030041 10 267 1.6 9.7 0.00 0.00 0.00 83 1013.8
20260504025526 10 250 3.2 12.9 0.00 0.00 0.00 82 1013.6
20260504025026 10 237 4.8 12.9 0.00 0.00 0.00 82 1013.6
20260504024542 10 208 3.2 11.3 0.00 0.00 0.00 82 1013.6
20260504024030 10 218 3.2 11.3 0.00 0.00 0.00 82 1013.6
20260504023525 10 235 1.6 8.0 0.00 0.00 0.00 82 1013.6
20260504023054 10 243 1.6 8.0 0.00 0.00 0.00 81 1013.5
20260504022525 10 230 4.8 11.3 0.00 0.00 0.00 81 1013.5
20260504022025 10 219 4.8 11.3 0.00 0.00 0.00 81 1013.7
20260504021542 10 0 4.8 9.7 0.00 0.00 0.00 81 1013.6
20260504021024 10 213 1.6 8.0 0.00 0.00 0.00 81 1013.6
20260504020526 10 0 0.0 8.0 0.00 0.00 0.00 81 1013.6
20260504020041 10 240 3.2 8.0 0.00 0.00 0.00 81 1013.6
20260504015525 10 225 4.8 9.7 0.00 0.00 0.00 81 1013.7
20260504015025 10 218 3.2 9.7 0.00 0.00 0.00 81 1013.7
20260504014558 10 226 4.8 9.7 0.00 0.00 0.00 81 1013.6
20260504014024 10 231 3.2 8.0 0.00 0.00 0.00 81 1013.5
20260504013526 10 224 1.6 9.7 0.00 0.00 0.00 81 1013.7
20260504013042 10 216 3.2 9.7 0.00 0.00 0.00 81 1013.7
20260504012527 11 242 4.8 9.7 0.00 0.00 0.00 81 1013.8
20260504012027 11 231 1.6 6.4 0.00 0.00 0.00 81 1013.7
20260504011546 11 237 0.0 8.0 0.00 0.00 0.00 81 1013.8
20260504011025 11 0 0.0 12.9 0.00 0.00 0.00 81 1013.8
20260504010528 11 234 4.8 12.9 0.00 0.00 0.00 81 1013.8
20260504010053 11 240 4.8 8.0 0.00 0.00 0.00 81 1013.9
20260504005530 11 225 3.2 8.0 0.00 0.00 0.00 81 1013.9
20260504005031 11 216 1.6 8.0 0.00 0.00 0.00 81 1013.9
20260504004549 11 215 4.8 8.0 0.00 0.00 0.00 81 1013.8
20260504004027 11 225 3.2 8.0 0.00 0.00 0.00 80 1013.8
20260504003532 11 224 3.2 8.0 0.00 0.00 0.00 80 1013.9
20260504003047 11 226 1.6 6.4 0.00 0.00 0.00 80 1013.8
20260504002528 11 249 1.6 6.4 0.00 0.00 0.00 79 1013.7
20260504002028 11 0 0.0 6.4 0.00 0.00 0.00 79 1013.8
20260504001555 11 248 1.6 6.4 0.00 0.00 0.00 79 1013.8
20260504001028 11 246 3.2 6.4 0.00 0.00 0.00 79 1013.8
20260504000530 12 0 0.0 8.0 0.00 0.00 0.00 79 1013.9
20260504000101 12 231 3.2 9.7 0.00 0.00 0.00 79 1014.0
20260503235529 12 198 3.2 9.7 0.00 0.00 0.00 79 1014.1
20260503235029 12 194 3.2 8.0 0.00 0.00 0.00 78 1014.0
20260503234545 12 0 3.2 6.4 0.00 0.00 0.00 78 1014.0
20260503234029 12 232 1.6 11.3 0.00 0.00 0.00 78 1014.1
20260503233528 12 244 3.2 11.3 0.00 0.00 0.00 78 1014.1
20260503233044 12 237 4.8 11.3 0.00 0.00 0.00 78 1014.0
20260503232530 12 258 3.2 12.9 0.00 0.00 0.00 77 1014.0
20260503232027 12 254 4.8 12.9 0.00 0.00 0.00 77 1014.0
20260503231549 12 234 4.8 8.0 0.00 0.00 0.00 76 1014.1
20260503231028 12 250 3.2 11.3 0.00 0.00 0.00 76 1014.0
20260503230527 12 239 3.2 11.3 0.00 0.00 0.00 75 1014.0
20260503230049 13 233 3.2 11.3 0.00 0.00 0.00 75 1014.1
20260503225525 13 248 3.2 11.3 0.00 0.00 0.00 74 1013.9
20260503225033 13 222 3.2 11.3 0.00 0.00 0.00 74 1013.9
20260503224547 13 248 3.2 12.9 0.00 0.00 0.00 73 1014.0
20260503224028 13 230 4.8 12.9 0.00 0.00 0.00 73 1014.0
20260503223531 13 254 3.2 9.7 0.00 0.00 0.00 73 1014.1
20260503223042 13 242 1.6 9.7 0.00 0.00 0.00 72 1014.1
20260503222527 14 263 0.0 16.1 0.00 0.00 0.00 72 1013.9
20260503222027 14 243 1.6 16.1 0.00 0.00 0.00 71 1014.0
20260503221549 14 290 8.0 16.1 0.00 0.00 0.00 71 1014.1
20260503221028 14 277 6.4 14.5 0.00 0.00 0.00 71 1014.0
20260503220530 14 277 3.2 17.7 0.00 0.00 0.00 70 1013.9
20260503220052 14 285 8.0 17.7 0.00 0.00 0.00 70 1014.0
20260503215528 15 294 4.8 16.1 0.00 0.00 0.00 70 1014.0
20260503215024 15 278 11.3 19.3 0.00 0.00 0.00 70 1013.9
20260503214544 15 255 11.3 19.3 0.00 0.00 0.00 70 1014.0
20260503214025 15 300 6.4 16.1 0.00 0.00 0.00 70 1014.1
20260503213525 15 285 8.0 16.1 0.00 0.00 0.00 70 1013.9
20260503213042 15 279 6.4 12.9 0.00 0.00 0.00 69 1013.9
20260503212525 15 290 6.4 12.9 0.00 0.00 0.00 69 1013.8
20260503212027 15 297 4.8 12.9 0.00 0.00 0.00 69 1013.8
20260503211541 15 267 4.8 12.9 0.00 0.00 0.00 68 1013.8
20260503211029 15 295 6.4 16.1 0.00 0.00 0.00 68 1013.7
20260503210531 15 288 8.0 16.1 0.00 0.00 0.00 67 1013.7
20260503210040 15 296 4.8 11.3 0.00 0.00 0.00 67 1013.6
20260503205526 15 294 4.8 9.7 0.00 0.00 0.00 67 1013.6
20260503205025 15 284 4.8 9.7 0.00 0.00 0.00 66 1013.5
20260503204542 15 292 3.2 11.3 0.00 0.00 0.00 66 1013.4
20260503204029 16 289 3.2 11.3 0.00 0.00 0.00 65 1013.4
20260503203530 16 287 4.8 14.5 0.00 0.00 0.00 65 1013.2
20260503203044 16 298 4.8 14.5 0.00 0.00 0.00 65 1013.1
20260503202525 16 284 4.8 12.9 0.00 0.00 0.00 65 1013.1
20260503202025 16 271 3.2 6.4 0.00 0.00 0.00 65 1012.9
20260503201542 16 267 0.0 9.7 0.00 0.00 0.00 65 1013.0
20260503201025 16 266 0.0 11.3 0.00 0.00 0.00 65 1013.1
20260503200524 16 0 1.6 11.3 0.00 0.00 0.00 65 1012.8
20260503200041 16 0 1.6 11.3 0.00 0.00 0.00 65 1012.8
20260503195525 16 236 3.2 11.3 0.00 0.00 0.00 65 1012.7
20260503195029 16 286 3.2 11.3 0.00 0.00 0.00 66 1012.7
20260503194542 16 279 1.6 12.9 0.00 0.00 0.00 67 1012.7
20260503194025 16 289 6.4 12.9 0.00 0.00 0.00 66 1012.6
20260503193528 16 316 6.4 12.9 0.00 0.00 0.00 66 1012.5
20260503193050 16 332 6.4 12.9 0.00 0.00 0.00 65 1012.5
20260503192525 16 317 6.4 16.1 0.00 0.00 0.00 65 1012.6
20260503192026 16 343 4.8 16.1 0.00 0.00 0.00 64 1012.4
20260503191543 16 309 8.0 16.1 0.00 0.00 0.00 63 1012.4
20260503191027 16 300 6.4 19.3 0.00 0.00 0.00 63 1012.5
20260503190524 16 277 9.7 19.3 0.00 0.00 0.00 63 1012.5
20260503190043 16 302 12.9 19.3 0.00 0.00 0.00 62 1012.4
20260503185524 17 281 9.7 19.3 0.00 0.00 0.00 63 1012.3
20260503185025 17 309 11.3 19.3 0.00 0.00 0.00 64 1012.3
20260503184541 17 346 11.3 27.4 0.00 0.00 0.00 63 1012.3
20260503184025 17 307 12.9 27.4 0.00 0.00 0.00 63 1012.0
20260503183528 17 313 16.1 27.4 0.00 0.00 0.00 62 1012.1
20260503183106 17 313 14.5 24.1 0.00 0.00 0.00 61 1012.1
20260503182525 18 324 14.5 25.7 0.00 0.00 0.00 58 1012.0
20260503182028 18 303 12.9 25.7 0.00 0.00 0.00 58 1012.0
20260503181603 18 273 14.5 20.9 0.00 0.00 0.00 57 1011.9
20260503181028 18 300 12.9 22.5 0.00 0.00 0.00 57 1011.9
20260503180528 18 288 9.7 22.5 0.00 0.00 0.00 57 1012.0
20260503180042 18 279 12.9 22.5 0.00 0.00 0.00 56 1011.9
20260503175527 18 282 11.3 24.1 0.00 0.00 0.00 56 1012.0
20260503175028 18 331 14.5 24.1 0.00 0.00 0.00 55 1011.9
20260503174542 18 297 12.9 24.1 0.00 0.00 0.00 54 1012.0
20260503174028 19 302 14.5 24.1 0.00 0.00 0.00 54 1011.9
20260503173528 19 282 9.7 22.5 0.00 0.00 0.00 55 1011.9
20260503173053 19 316 12.9 22.5 0.00 0.00 0.00 54 1011.9
20260503172531 19 304 16.1 22.5 0.00 0.00 0.00 54 1011.8
20260503172031 19 271 9.7 19.3 0.00 0.00 0.00 55 1011.8
20260503171546 18 280 11.3 19.3 0.00 0.00 0.00 55 1011.9
20260503171028 18 293 11.3 22.5 0.00 0.00 0.00 55 1011.8
20260503170529 19 315 8.0 22.5 0.00 0.00 0.00 55 1011.8
20260503150527 21 217 11.3 20.9 0.00 0.00 0.00 45 1012.1
20260503131033 19 245 9.7 22.5 0.00 0.00 0.00 47 1013.3
20260503130527 19 269 8.0 22.5 0.00 0.00 0.00 47 1013.3
20260503110530 18 294 11.3 19.3 0.00 0.00 0.00 58 1014.3